Location: ????????
(41.2031°N, 22.5756°E)
Time: 14:42:22
(UTC+00:00)

Meteor 1-11 Rocket - Pass Details

Date: 01 December 2020
Orbit: 832 x 915 km, 81.2° (Epoch: 20 January)

Event Time Altitude Azimuth Distance (km) Brightness Sun altitude
Rises 17:34:57 0° 347° (NNW) 3,480 7.0 -28.2°
Reaches altitude 10° 17:37:23 10° 345° (NNW) 2,550 6.3 -28.7°
Maximum altitude 17:43:09 69° 264° (W) 956 4.0 -29.8°
Drops below altitude 10° 17:49:00 10° 182° (S) 2,581 6.2 -30.9°
Sets 17:51:29 0° 180° (S) 3,525 7.0 -31.3°
